GW3928 Weather Reports


Display with metric or nautical units.
time (UTC)temp
F
wind
direction
speed
MPH
gust
MPH
rain 1hr
in
rain 24hr
in
rain mn
in
humidity
%
barometer
mb
20260507104038 59 303 1.0 4.0 0.00 0.00 0.00 34 1016.4
20260507103534 60 332 2.0 4.0 0.00 0.00 0.00 34 1016.5
20260507103031 61 4 0.0 3.0 0.00 0.00 0.00 33 1016.7
20260507102528 60 275 2.0 5.0 0.00 0.00 0.00 34 1016.5
20260507102024 61 268 3.0 7.0 0.00 0.00 0.00 33 1016.6
20260507101520 59 288 4.0 5.0 0.00 0.00 0.00 35 1016.6
20260507101016 59 314 2.0 4.0 0.00 0.00 0.00 36 1016.6
20260507100514 58 293 2.0 5.0 0.00 0.00 0.00 36 1016.5
20260507100012 59 24 0.0 2.0 0.00 0.00 0.00 35 1016.6
20260507095509 60 224 0.0 3.0 0.00 0.00 0.00 34 1016.5
20260507095005 59 258 2.0 4.0 0.00 0.00 0.00 33 1016.6
20260507094502 60 296 0.0 3.0 0.00 0.00 0.00 32 1016.5
20260507093959 60 356 3.0 3.0 0.00 0.00 0.00 32 1016.5
20260507093456 60 344 0.0 3.0 0.00 0.00 0.00 33 1016.6
20260507092955 60 315 1.0 3.0 0.00 0.00 0.00 34 1016.6
20260507092451 61 313 1.0 3.0 0.00 0.00 0.00 35 1016.5
20260507091947 61 271 1.0 2.0 0.00 0.00 0.00 36 1016.6
20260507091443 61 345 1.0 3.0 0.00 0.00 0.00 36 1016.7
20260507090940 61 23 2.0 3.0 0.00 0.00 0.00 37 1016.5
20260507090436 61 328 1.0 5.0 0.00 0.00 0.00 37 1016.6
20260507085932 61 313 3.0 3.0 0.00 0.00 0.00 37 1016.8
20260507085429 61 312 2.0 3.0 0.00 0.00 0.00 36 1016.6
20260507084926 60 0 3.0 3.0 0.00 0.00 0.00 36 1016.7
20260507084423 60 282 3.0 4.0 0.00 0.00 0.00 37 1016.6
20260507083920 60 295 0.0 5.0 0.00 0.00 0.00 39 1016.5
20260507083417 60 295 2.0 3.0 0.00 0.00 0.00 40 1016.7
20260507082913 59 344 1.0 2.0 0.00 0.00 0.00 41 1016.8
20260507082409 60 271 1.0 2.0 0.00 0.00 0.00 40 1016.8
20260507081906 60 0 2.0 3.0 0.00 0.00 0.00 40 1016.9
20260507081402 60 302 1.0 4.0 0.00 0.00 0.00 41 1016.9
20260507080859 60 317 3.0 5.0 0.00 0.00 0.00 42 1017.0
20260507080355 60 311 0.0 5.0 0.00 0.00 0.00 43 1016.7
20260507075851 61 257 5.0 6.0 0.00 0.00 0.00 43 1016.8
20260507075347 61 209 2.0 3.0 0.00 0.00 0.00 41 1016.8
20260507074843 62 25 0.0 2.0 0.00 0.00 0.00 40 1016.9
20260507074341 62 296 2.0 5.0 0.00 0.00 0.00 41 1016.8
20260507073838 61 279 2.0 3.0 0.00 0.00 0.00 43 1016.9
20260507073334 61 146 0.0 2.0 0.00 0.00 0.00 43 1016.9
20260507072832 62 300 1.0 3.0 0.00 0.00 0.00 42 1016.8
20260507072329 62 264 3.0 7.0 0.00 0.00 0.00 42 1016.9
20260507071826 62 283 2.0 6.0 0.00 0.00 0.00 42 1016.8
20260507071324 62 275 3.0 5.0 0.00 0.00 0.00 42 1016.7
20260507070819 61 275 0.0 5.0 0.00 0.00 0.00 43 1016.8
20260507070317 62 278 2.0 4.0 0.00 0.00 0.00 42 1016.8
20260507065814 62 281 3.0 5.0 0.00 0.00 0.00 42 1016.7
20260507065310 62 260 4.0 7.0 0.00 0.00 0.00 42 1016.8
20260507064808 62 241 4.0 4.0 0.00 0.00 0.00 43 1017.0
20260507064306 62 271 3.0 4.0 0.00 0.00 0.00 42 1017.0
20260507063804 62 254 4.0 7.0 0.00 0.00 0.00 42 1017.0
20260507063300 62 250 3.0 6.0 0.00 0.00 0.00 42 1017.0
20260507062757 62 261 2.0 3.0 0.00 0.00 0.00 42 1016.9
20260507062254 62 240 3.0 5.0 0.00 0.00 0.00 42 1016.8
20260507061752 62 275 3.0 7.0 0.00 0.00 0.00 41 1016.9
20260507061250 63 263 3.0 8.0 0.00 0.00 0.00 41 1016.7
20260507060748 63 253 2.0 8.0 0.00 0.00 0.00 41 1016.6
20260507060244 63 250 3.0 4.0 0.00 0.00 0.00 41 1016.9
20260507055741 63 289 2.0 4.0 0.00 0.00 0.00 41 1016.8
20260507055236 63 293 1.0 2.0 0.00 0.00 0.00 41 1016.8
20260507054733 63 274 2.0 4.0 0.00 0.00 0.00 40 1016.7
20260507054229 64 236 5.0 7.0 0.00 0.00 0.00 40 1016.9
20260507053727 64 258 5.0 8.0 0.00 0.00 0.00 40 1016.8
20260507053224 64 237 5.0 6.0 0.00 0.00 0.00 40 1016.9
20260507052723 64 235 6.0 9.0 0.00 0.00 0.00 40 1017.0
20260507052219 64 241 2.0 7.0 0.00 0.00 0.00 39 1016.8
20260507051717 65 226 2.0 4.0 0.00 0.00 0.00 39 1016.8
20260507051214 65 276 2.0 4.0 0.00 0.00 0.00 38 1016.8
20260507050710 65 234 3.0 5.0 0.00 0.00 0.00 38 1016.7
20260507050207 65 238 2.0 4.0 0.00 0.00 0.00 38 1016.9
20260507045704 65 211 2.0 4.0 0.00 0.00 0.00 38 1016.9
20260507045200 66 232 3.0 6.0 0.00 0.00 0.00 38 1016.9
20260507044658 66 231 4.0 8.0 0.00 0.00 0.00 38 1016.9
20260507044154 66 243 5.0 10.0 0.00 0.00 0.00 37 1016.9
20260507043650 67 229 2.0 9.0 0.00 0.00 0.00 37 1016.8
20260507043147 66 245 2.0 6.0 0.00 0.00 0.00 37 1016.6
20260507042644 67 235 3.0 8.0 0.00 0.00 0.00 37 1016.8
20260507042138 66 249 3.0 5.0 0.00 0.00 0.00 37 1016.7
20260507041636 67 252 3.0 7.0 0.00 0.00 0.00 36 1016.7
20260507041132 67 224 7.0 9.0 0.00 0.00 0.00 36 1016.6
20260507040630 67 209 5.0 9.0 0.00 0.00 0.00 36 1016.5
20260507040126 68 235 2.0 9.0 0.00 0.00 0.00 35 1016.4
20260507035622 68 248 3.0 8.0 0.00 0.00 0.00 35 1016.6
20260507035118 68 229 3.0 7.0 0.00 0.00 0.00 35 1016.4
20260507034615 68 227 2.0 10.0 0.00 0.00 0.00 35 1016.5
20260507034113 68 211 4.0 9.0 0.00 0.00 0.00 35 1016.2
20260507033611 69 222 4.0 9.0 0.00 0.00 0.00 35 1016.3
20260507033108 69 226 5.0 9.0 0.00 0.00 0.00 34 1016.0
20260507032605 69 233 3.0 12.0 0.00 0.00 0.00 34 1016.2
20260507032056 69 218 3.0 10.0 0.00 0.00 0.00 33 1016.2
20260507031552 70 233 4.0 6.0 0.00 0.00 0.00 33 1015.8
20260507031049 70 231 4.0 8.0 0.00 0.00 0.00 33 1015.8
20260507030546 70 225 5.0 7.0 0.00 0.00 0.00 33 1015.8
20260507030044 71 204 4.0 11.0 0.00 0.00 0.00 32 1015.8
20260507025541 71 226 9.0 10.0 0.00 0.00 0.00 32 1015.6
20260507025038 71 230 3.0 11.0 0.00 0.00 0.00 31 1015.6
20260507024536 71 226 5.0 9.0 0.00 0.00 0.00 31 1015.5
20260507024032 72 245 4.0 8.0 0.00 0.00 0.00 31 1015.5
20260507023528 72 248 4.0 7.0 0.00 0.00 0.00 30 1015.6
20260507023026 72 261 0.0 6.0 0.00 0.00 0.00 29 1015.3
20260507022523 73 189 2.0 5.0 0.00 0.00 0.00 28 1015.4
20260507022018 74 228 3.0 5.0 0.00 0.00 0.00 27 1015.6
20260507021514 75 225 3.0 4.0 0.00 0.00 0.00 22 1015.4
20260507021011 75 286 2.0 3.0 0.00 0.00 0.00 22 1015.5
20260507020508 76 102 0.0 2.0 0.00 0.00 0.00 22 1015.2
20260507020005 77 294 3.0 4.0 0.00 0.00 0.00 22 1015.3
20260507015503 77 269 5.0 7.0 0.00 0.00 0.00 21 1015.0
20260507014955 78 330 3.0 5.0 0.00 0.00 0.00 21 1015.2
20260507014451 79 359 3.0 5.0 0.00 0.00 0.00 21 1015.2
20260507013947 79 331 0.0 3.0 0.00 0.00 0.00 20 1015.1
20260507013444 78 325 0.0 4.0 0.00 0.00 0.00 20 1015.2
20260507012941 78 59 3.0 5.0 0.00 0.00 0.00 20 1015.1
20260507012437 79 302 3.0 7.0 0.00 0.00 0.00 20 1015.2
20260507011928 80 299 0.0 5.0 0.00 0.00 0.00 19 1015.2
20260507011426 80 93 1.0 3.0 0.00 0.00 0.00 18 1015.3
20260507010925 80 305 2.0 8.0 0.00 0.00 0.00 18 1015.2
20260507010421 80 0 2.0 5.0 0.00 0.00 0.00 18 1015.3
20260507005918 80 276 4.0 7.0 0.00 0.00 0.00 18 1015.2
20260507005415 80 315 2.0 7.0 0.00 0.00 0.00 17 1015.4
20260507004911 80 37 2.0 7.0 0.00 0.00 0.00 17 1015.2
20260507004408 80 19 2.0 6.0 0.00 0.00 0.00 17 1015.2
20260507003906 81 8 3.0 8.0 0.00 0.00 0.00 18 1015.1
20260507003400 81 265 3.0 5.0 0.00 0.00 0.00 17 1014.8
20260507002856 82 272 0.0 4.0 0.00 0.00 0.00 19 1015.2
20260507002352 81 312 4.0 8.0 0.00 0.00 0.00 19 1015.0
20260507001850 81 82 5.0 12.0 0.00 0.00 0.00 19 1014.8
20260507001346 82 226 6.0 6.0 0.00 0.00 0.00 19 1014.8
20260507000843 82 337 4.0 8.0 0.00 0.00 0.00 19 1014.8
20260507000338 82 340 4.0 8.0 0.00 0.00 0.00 19 1015.0
20260506235835 82 267 3.0 6.0 0.00 0.00 0.00 18 1014.7
20260506235332 82 303 3.0 6.0 0.00 0.00 0.00 18 1014.8
20260506234828 83 318 2.0 6.0 0.00 0.00 0.00 17 1015.0
20260506234326 81 273 3.0 10.0 0.00 0.00 0.00 19 1015.0
20260506233823 81 338 0.0 7.0 0.00 0.00 0.00 19 1014.7
20260506233319 81 306 2.0 5.0 0.00 0.00 0.00 19 1015.0
20260506232816 81 184 0.0 3.0 0.00 0.00 0.00 20 1015.0
20260506232311 80 50 3.0 7.0 0.00 0.00 0.00 20 1014.8
20260506231808 79 59 4.0 12.0 0.00 0.00 0.00 20 1015.1
20260506231307 80 123 8.0 10.0 0.00 0.00 0.00 20 1015.0
20260506230803 79 79 3.0 6.0 0.00 0.00 0.00 21 1015.2
20260506230300 79 41 2.0 6.0 0.00 0.00 0.00 21 1015.2
20260506225756 81 0 2.0 8.0 0.00 0.00 0.00 20 1015.3
20260506225254 80 356 4.0 12.0 0.00 0.00 0.00 20 1015.3
20260506224750 80 68 6.0 9.0 0.00 0.00 0.00 21 1015.1
20260506224248 80 213 0.0 6.0 0.00 0.00 0.00 21 1015.2
20260506223744 79 113 6.0 11.0 0.00 0.00 0.00 22 1015.3
20260506223239 80 79 3.0 7.0 0.00 0.00 0.00 21 1015.4
20260506222737 80 100 4.0 8.0 0.00 0.00 0.00 21 1015.5
20260506222232 82 37 3.0 7.0 0.00 0.00 0.00 21 1015.5
20260506221730 83 354 3.0 6.0 0.00 0.00 0.00 20 1015.5
20260506221223 82 353 2.0 9.0 0.00 0.00 0.00 21 1015.5
20260506220720 81 44 2.0 12.0 0.00 0.00 0.00 21 1015.7
20260506220219 81 69 5.0 9.0 0.00 0.00 0.00 21 1015.7
20260506215717 81 64 3.0 10.0 0.00 0.00 0.00 22 1016.0
20260506215212 81 71 4.0 13.0 0.00 0.00 0.00 21 1015.9
20260506214709 80 317 3.0 8.0 0.00 0.00 0.00 22 1015.9
20260506214206 78 63 3.0 9.0 0.00 0.00 0.00 22 1016.0
20260506213705 80 99 6.0 13.0 0.00 0.00 0.00 22 1015.9
20260506213202 78 94 3.0 9.0 0.00 0.00 0.00 23 1016.2
20260506212659 79 111 9.0 9.0 0.00 0.00 0.00 22 1015.9
20260506212154 80 87 5.0 7.0 0.00 0.00 0.00 22 1016.4
20260506211649 81 286 3.0 12.0 0.00 0.00 0.00 22 1016.3
20260506211146 80 240 2.0 7.0 0.00 0.00 0.00 22 1016.3
20260506210643 80 359 4.0 11.0 0.00 0.00 0.00 22 1016.4
20260506210140 79 15 4.0 7.0 0.00 0.00 0.00 22 1016.5
20260506205637 79 19 3.0 6.0 0.00 0.00 0.00 23 1016.4
20260506205132 79 255 3.0 7.0 0.00 0.00 0.00 23 1016.4
20260506204631 79 316 4.0 10.0 0.00 0.00 0.00 23 1016.4
20260506204127 78 344 1.0 11.0 0.00 0.00 0.00 23 1016.5
20260506203625 79 100 1.0 8.0 0.00 0.00 0.00 23 1016.5
20260506203121 79 314 4.0 7.0 0.00 0.00 0.00 23 1016.6
20260506202620 79 323 4.0 11.0 0.00 0.00 0.00 23 1016.6
20260506202116 77 337 2.0 8.0 0.00 0.00 0.00 24 1016.6
20260506201613 77 135 7.0 11.0 0.00 0.00 0.00 24 1016.5
20260506201109 78 91 7.0 12.0 0.00 0.00 0.00 23 1016.6
20260506200605 78 44 3.0 21.0 0.00 0.00 0.00 23 1016.6
20260506195559 75 58 3.0 10.0 0.00 0.00 0.00 25 1016.9
20260506195055 76 62 10.0 16.0 0.00 0.00 0.00 25 1017.0
20260506194553 77 92 5.0 8.0 0.00 0.00 0.00 24 1017.0
20260506194049 78 77 1.0 5.0 0.00 0.00 0.00 24 1017.4
20260506193547 77 53 5.0 8.0 0.00 0.00 0.00 24 1017.1
20260506193039 77 66 4.0 7.0 0.00 0.00 0.00 24 1017.0
20260506192535 77 332 2.0 13.0 0.00 0.00 0.00 24 1017.0
20260506192031 77 322 4.0 7.0 0.00 0.00 0.00 23 1017.1
20260506191528 76 42 3.0 9.0 0.00 0.00 0.00 24 1017.0
20260506191024 77 31 4.0 10.0 0.00 0.00 0.00 24 1017.0
20260506190521 75 296 3.0 8.0 0.00 0.00 0.00 24 1017.1
20260506190019 76 70 3.0 7.0 0.00 0.00 0.00 24 1017.1
20260506185515 75 67 7.0 12.0 0.00 0.00 0.00 24 1017.4
20260506185012 74 88 4.0 12.0 0.00 0.00 0.00 25 1017.4
20260506184509 76 338 4.0 8.0 0.00 0.00 0.00 24 1017.3
20260506184006 75 323 0.0 9.0 0.00 0.00 0.00 25 1017.3
20260506183501 75 332 3.0 10.0 0.00 0.00 0.00 25 1017.3
20260506182953 75 322 3.0 8.0 0.00 0.00 0.00 24 1017.4
20260506182450 74 52 3.0 9.0 0.00 0.00 0.00 25 1017.5
20260506181947 75 320 4.0 7.0 0.00 0.00 0.00 24 1017.5
20260506181445 74 40 2.0 9.0 0.00 0.00 0.00 25 1017.6
20260506180941 75 264 5.0 7.0 0.00 0.00 0.00 25 1017.5
20260506180438 74 289 4.0 9.0 0.00 0.00 0.00 25 1017.6
20260506175929 74 354 3.0 9.0 0.00 0.00 0.00 25 1017.5
20260506175426 73 78 5.0 8.0 0.00 0.00 0.00 26 1017.4
20260506174923 74 324 5.0 11.0 0.00 0.00 0.00 25 1017.5
20260506174421 73 40 4.0 9.0 0.00 0.00 0.00 26 1017.3
20260506173917 73 64 6.0 12.0 0.00 0.00 0.00 26 1017.4
20260506173414 71 23 2.0 8.0 0.00 0.00 0.00 30 1017.4
20260506172911 72 314 2.0 5.0 0.00 0.00 0.00 29 1017.1
20260506172408 72 313 1.0 5.0 0.00 0.00 0.00 29 1017.5
20260506171905 71 66 2.0 8.0 0.00 0.00 0.00 29 1017.4
20260506171402 70 33 2.0 7.0 0.00 0.00 0.00 30 1017.3
20260506170900 69 95 4.0 9.0 0.00 0.00 0.00 31 1017.3
20260506170355 68 332 4.0 9.0 0.00 0.00 0.00 32 1017.3
20260506165849 69 110 4.0 6.0 0.00 0.00 0.00 31 1017.4
20260506165347 68 92 4.0 12.0 0.00 0.00 0.00 32 1017.4
20260506164843 67 43 2.0 6.0 0.00 0.00 0.00 32 1017.3
20260506164340 68 23 3.0 7.0 0.00 0.00 0.00 32 1017.5
20260506163838 67 99 3.0 7.0 0.00 0.00 0.00 31 1017.4
20260506163332 66 96 2.0 6.0 0.00 0.00 0.00 32 1017.3
20260506162827 66 128 4.0 9.0 0.00 0.00 0.00 32 1017.0
20260506162325 66 94 9.0 11.0 0.00 0.00 0.00 32 1017.3
20260506161822 66 165 4.0 7.0 0.00 0.00 0.00 33 1017.3
20260506161319 64 127 5.0 9.0 0.00 0.00 0.00 34 1016.9
20260506160812 65 94 4.0 7.0 0.00 0.00 0.00 33 1017.0
20260506160308 66 144 2.0 5.0 0.00 0.00 0.00 32 1017.1
20260506155807 65 170 2.0 6.0 0.00 0.00 0.00 33 1016.9
20260506155306 66 109 5.0 6.0 0.00 0.00 0.00 32 1016.8
20260506153416 63 142 0.0 5.0 0.00 0.00 0.00 35 1016.8
20260506152913 62 106 3.0 6.0 0.00 0.00 0.00 36 1017.1
20260506152410 63 116 4.0 5.0 0.00 0.00 0.00 36 1016.8
20260506151909 62 132 0.0 4.0 0.00 0.00 0.00 36 1016.9
20260506151405 61 102 4.0 6.0 0.00 0.00 0.00 38 1017.0
20260506150903 61 159 3.0 5.0 0.00 0.00 0.00 38 1016.9
20260506150359 61 126 3.0 5.0 0.00 0.00 0.00 38 1016.9
20260506145856 62 61 2.0 3.0 0.00 0.00 0.00 37 1016.8
20260506145352 62 73 2.0 3.0 0.00 0.00 0.00 37 1016.7
20260506144850 61 124 2.0 3.0 0.00 0.00 0.00 38 1016.7
20260506144346 61 148 1.0 4.0 0.00 0.00 0.00 38 1016.8
20260506143844 60 170 0.0 4.0 0.00 0.00 0.00 39 1016.7
20260506143341 61 105 4.0 5.0 0.00 0.00 0.00 39 1016.7
20260506142839 59 174 0.0 3.0 0.00 0.00 0.00 41 1016.9
20260506142337 58 217 0.0 2.0 0.00 0.00 0.00 41 1016.8
20260506141835 58 187 1.0 3.0 0.00 0.00 0.00 41 1016.6
20260506141333 57 194 1.0 3.0 0.00 0.00 0.00 43 1016.5
20260506140831 57 179 1.0 2.0 0.00 0.00 0.00 43 1016.5
20260506140327 56 242 0.0 0.0 0.00 0.00 0.00 44 1016.5
20260506135824 55 257 0.0 2.0 0.00 0.00 0.00 45 1016.3
20260506135321 54 293 0.0 2.0 0.00 0.00 0.00 47 1016.4
20260506134817 53 315 0.0 2.0 0.00 0.00 0.00 48 1016.3
20260506134314 53 75 0.0 1.0 0.00 0.00 0.00 49 1016.4
20260506133811 52 50 0.0 1.0 0.00 0.00 0.00 49 1015.9
20260506133308 52 70 0.0 3.0 0.00 0.00 0.00 51 1016.0
20260506132804 50 89 0.0 1.0 0.00 0.00 0.00 55 1016.0
20260506132302 48 48 0.0 2.0 0.00 0.00 0.00 57 1016.0
20260506131800 47 44 0.0 2.0 0.00 0.00 0.00 58 1015.8
20260506131255 46 59 0.0 2.0 0.00 0.00 0.00 60 1015.6
20260506130752 45 23 0.0 2.0 0.00 0.00 0.00 61 1015.6
20260506130249 45 316 1.0 3.0 0.00 0.00 0.00 61 1015.7
20260506125747 44 298 0.0 3.0 0.00 0.00 0.00 63 1015.7
20260506125245 44 22 0.0 1.0 0.00 0.00 0.00 62 1015.7
20260506124743 44 54 0.0 2.0 0.00 0.00 0.00 61 1015.9
20260506124240 44 296 0.0 1.0 0.00 0.00 0.00 61 1015.5
20260506123738 45 145 0.0 1.0 0.00 0.00 0.00 59 1015.5
20260506123237 45 332 0.0 2.0 0.00 0.00 0.00 59 1015.5
20260506122733 46 324 0.0 2.0 0.00 0.00 0.00 59 1015.3
20260506122230 46 314 1.0 3.0 0.00 0.00 0.00 58 1015.3
20260506121728 46 336 0.0 2.0 0.00 0.00 0.00 59 1015.4
20260506121225 46 261 1.0 2.0 0.00 0.00 0.00 57 1015.4
20260506120722 47 317 1.0 4.0 0.00 0.00 0.00 57 1015.3
20260506120219 46 298 3.0 3.0 0.00 0.00 0.00 59 1015.5
20260506115717 45 291 2.0 5.0 0.00 0.00 0.00 60 1015.3
20260506115215 46 89 1.0 3.0 0.00 0.00 0.00 58 1015.3
20260506114713 46 288 0.0 3.0 0.00 0.00 0.00 59 1015.3
20260506114210 46 6 0.0 3.0 0.00 0.00 0.00 59 1015.1
20260506113708 45 306 0.0 2.0 0.00 0.00 0.00 60 1015.2
20260506113205 45 349 2.0 2.0 0.00 0.00 0.00 60 1015.1
20260506112701 46 310 0.0 2.0 0.00 0.00 0.00 59 1015.2
20260506112159 46 352 0.0 2.0 0.00 0.00 0.00 60 1015.1
20260506111657 47 19 0.0 2.0 0.00 0.00 0.00 58 1015.2
20260506111154 46 323 2.0 3.0 0.00 0.00 0.00 60 1015.2
20260506110651 45 13 1.0 3.0 0.00 0.00 0.00 61 1015.1
20260506110149 44 306 0.0 2.0 0.00 0.00 0.00 61 1015.2
20260506105645 45 243 0.0 2.0 0.00 0.00 0.00 60 1015.0
20260506105142 46 345 0.0 2.0 0.00 0.00 0.00 59 1015.0
20260506104641 47 269 0.0 2.0 0.00 0.00 0.00 58 1015.0